Location: Greenhawk Observatory
(37.3417°N, 122.0298°W)
Time: 16:08:14
(UTC-07:00)

Daily predictions for brighter satellites

Satellite Brightness Start Highest point End
(mag) Time Altitude Azimuth Time Altitude Azimuth Time Altitude Azimuth
Meteor 2-19 Rocket 4.5 20:00:12 10° S 20:06:21 83° E 20:12:31 10° N
Cosmos 1743 Rocket 4.4 20:06:43 10° NNW 20:10:58 56° W 20:15:11 10° S
Cosmos 1269 Rocket 4.2 20:06:46 10° NNW 20:12:05 81° WSW 20:17:22 10° SSE
Cosmos 1346 Rocket 3.4 20:15:55 10° SSW 20:19:57 64° W 20:24:01 10° N
Cosmos 2221 2.7 20:16:29 10° S 20:20:44 79° W 20:25:00 10° N
Cosmos 1300 2.9 20:19:04 10° S 20:22:52 76° W 20:26:42 10° N
Cosmos 44 Rocket 3.3 20:18:19 10° SSW 20:23:02 85° WNW 20:27:55 10° NNE
Thor Agena Rocket 3.7 20:22:03 10° NNE 20:27:13 56° ESE 20:32:23 10° S
GPS 2-05 Rocket1 3.9 20:24:52 10° W 20:27:56 32° SSW 20:30:49 11° SE
HJ-1C 3.6 20:26:21 10° S 20:29:40 71° W 20:33:02 10° NNW
Cosmos 2154 Rocket 4.1 20:26:29 10° SSE 20:32:33 55° E 20:38:37 10° NNE
Cosmos 1805 Rocket 3.5 20:28:35 10° N 20:32:55 62° E 20:37:11 10° SSE
FREGAT/IRIS 4.3 20:30:44 10° SSW 20:33:28 35° W 20:36:13 10° NNW
Resurs 01 Rocket 2.3 20:30:32 10° SE 20:34:35 36° ENE 20:38:41 10° N
CZ-2D R/B 3.3 20:32:21 10° S 20:36:08 85° WSW 20:39:58 10° NNW
Cosmos 2184 Rocket 4.2 20:30:06 10° S 20:36:16 77° W 20:42:27 10° N
Meteor 2-2 Rocket 4.5 20:31:21 10° SSE 20:36:57 53° E 20:42:41 10° NNE
Cosmos 1328 Rocket 4.4 20:34:14 10° SSE 20:38:01 29° E 20:41:50 10° NNE
Cosmos 2360 Rocket 3.5 20:33:04 10° SW 20:38:25 44° WNW 20:43:47 10° N
Cosmos 2333 Rocket 2.4 20:39:20 10° S 20:44:44 47° ESE 20:50:08 10° NE
Sakura Rocket 4.4 20:42:30 10° SW 20:45:48 20° S 20:47:26 16° SE
Cosmos 1455 2.7 20:43:39 10° SSE 20:47:10 37° E 20:50:45 10° NNE
Spot 2 Rocket 4.0 20:43:55 13° SE 20:48:11 42° ENE 20:52:58 10° N
COSMOS 2428 2.8 20:44:12 10° SSW 20:49:56 88° WNW 20:55:42 10° NNE
NOSS 2-1 (C) 3.8 20:49:12 10° SW 20:52:45 58° NW 20:56:34 10° NNE
Cosmos 2341 Rocket 4.2 20:46:47 10° SSE 20:52:56 53° E 20:59:05 10° NNE
Cosmos 2333 4.3 20:47:29 10° SSW 20:53:09 79° WNW 20:58:48 10° NNE
ERS-2 2.4 20:49:37 10° S 20:53:15 69° WSW 20:56:56 10° NNW
NOSS 2-1 (D) 3.9 20:50:11 10° SW 20:53:44 55° NW 20:57:32 10° NNE
SJ-11-01 4.5 20:50:24 14° SSE 20:54:17 51° ENE 20:58:49 10° N
Cosmos 1892 2.8 20:51:09 10° N 20:54:59 57° E 20:57:54 16° SSE
Meteor 2-15 4.4 20:51:35 10° N 20:57:45 87° E 21:03:50 10° S
USA 186 1.2 20:58:21 22° S 20:59:35 60° W 21:01:49 10° NNW
Cosmos 1408 4.2 20:57:02 10° NNE 20:59:41 19° ENE 20:59:41 19° ENE
Cosmos 1844 Rocket 2.6 20:54:08 10° NNW 20:59:50 79° ENE 21:04:30 16° SSE
Cosmos 1844 3.8 20:54:45 10° NNW 21:00:24 61° ENE 21:04:26 20° SE
ATLAS 2AS CENTAUR R/B 3.4 20:53:30 10° NNW 21:01:03 46° NE 21:05:45 21° ESE
Cosmos 962 Rocket 4.4 20:55:04 10° S 21:01:05 64° E 21:07:10 10° NNE
ATLAS CENTAUR R/B 1.1 20:59:52 10° SSW 21:03:24 53° ESE 21:07:04 10° NE
Cosmos 2237 Rocket 2.5 21:01:06 10° S 21:06:17 40° ESE 21:11:30 10° NE
Cosmos 2219 Rocket 2.2 21:01:24 10° SSW 21:07:04 88° ESE 21:12:45 10° NNE
Cosmos 1295 Rocket 4.4 21:06:02 10° S 21:12:20 75° E 21:18:40 10° N
Resurs 1-3 3.7 21:08:41 13° S 21:12:38 79° WSW 21:17:02 10° NNW
Cosmos 1666 Rocket 3.7 21:08:48 10° N 21:13:17 74° W 21:17:26 12° S
YAOGAN 6 3.2 21:10:36 11° S 21:13:55 54° W 21:17:28 10° NNW
Cosmos 2366 rocket 4.5 21:11:54 23° SE 21:15:05 37° E 21:20:46 10° NNE
Cosmos 2278 Rocket 2.9 21:12:02 10° N 21:17:15 36° ENE 21:19:15 28° E
NOSS 0 Rocket 3.8 21:12:11 10° S 21:18:17 67° ESE 21:24:25 10° NNE
Cosmos 1933 Rocket 4.0 21:15:10 10° N 21:19:19 40° E 21:20:08 36° ESE
H-2A R/B 3.1 21:19:44 24° E 21:20:34 26° ENE 21:24:39 10° NNE
NOAA 11 4.1 21:17:06 21° SSE 21:20:49 74° ENE 21:26:20 10° N
OAO 2 Rocket 3.5 21:15:51 10° W 21:20:57 59° S 21:22:53 35° SE
Timation 1 Rocket 4.4 21:18:25 10° NNW 21:24:24 81° WSW 21:28:15 23° SSE
SL-8 Rocket 4.0 21:18:59 10° S 21:25:12 63° E 21:31:24 10° NNE
ATLAS 3B CENTAUR R/B 4.5 21:16:57 10° W 21:25:49 21° SW 21:30:38 11° S
Sich 1 4.1 21:23:57 10° NNW 21:27:59 42° W 21:32:01 10° SSW
Cosmos 1151 Rocket 2.8 21:26:57 29° S 21:29:03 73° E 21:33:18 10° N
ERS-1 Rocket 3.9 21:30:18 28° ENE 21:30:47 29° ENE 21:35:04 10° N
Cosmos 1939 Rocket 4.2 21:27:54 11° SSW 21:31:15 36° W 21:34:52 10° NNW
Cosmos 1371 Rocket 4.3 21:30:20 37° SE 21:31:38 44° ESE 21:36:42 10° NNE
Cosmos 220 Rocket 3.9 21:27:19 10° NNW 21:31:41 73° ENE 21:32:38 51° SE
Cosmos 1825 2.5 21:34:54 10° N 21:38:10 49° NE 21:38:10 49° NE
ATLAS 2A CENTAUR R/B 4.3 21:24:09 10° SW 21:39:29 33° S 21:42:28 29° SE
Cosmos 1869 3.5 21:45:43 57° NE 21:45:43 57° NE 21:49:11 10° NNE
USA 267 3.3 21:39:40 10° NE 21:46:03 53° SE 21:52:23 10° SSW
Cosmos 1633 Rocket 4.5 21:43:01 10° NNW 21:47:00 35° W 21:50:07 15° SSW
Cosmos 2228 Rocket 3.5 21:46:50 21° SSW 21:49:40 60° W 21:54:02 10° N
Cosmos 2098 Rocket 3.1 21:52:10 69° ESE 21:52:26 71° E 21:56:35 10° NNE
Cosmos 2056 Rocket 3.6 21:53:18 56° ESE 21:53:19 56° ESE 21:58:37 10° NNE
Cosmos 1515 Rocket 4.3 21:51:24 19° SSW 21:54:28 53° W 21:58:52 10° N
SL-16 R/B 3.1 21:56:50 32° ENE 21:56:50 32° ENE 22:00:15 10° NE
Meteor 2-3 Rocket 4.5 21:50:12 10° NNW 21:55:36 50° W 21:59:18 20° SSW
SL-8 R/B 3.8 21:50:51 10° WSW 21:55:38 74° NNW 21:57:47 32° NE
Cosmos 864 Rocket 4.3 21:54:52 35° S 21:57:37 81° E 22:03:46 10° N
Helios 1A 4.3 22:02:58 30° NNE 22:02:58 30° NNE 22:05:34 10° N
ARGOS 3.1 22:07:34 65° S 22:08:23 84° WSW 22:13:46 10° NNW
SL-08 RB Rocket 3.8 22:09:11 65° NNE 22:09:11 65° NNE 22:13:06 10° N
Cosmos 1624 Rocket 3.8 22:10:32 84° S 22:10:43 87° ESE 22:15:56 10° NNE
Resurs 01 Rocket 4.1 22:08:08 10° SW 22:11:10 18° W 22:14:12 10° NW
GEOS 3 Rocket 3.7 22:07:26 10° NNE 22:12:47 79° NW 22:18:01 10° SW
MetOp-B 4.0 22:14:35 74° SSW 22:15:02 83° WSW 22:20:26 10° NNW
Cosmos 1190 Rocket 4.4 22:12:25 10° N 22:16:58 52° NE 22:16:58 52° NE
Cosmos 2344 3.7 22:20:44 49° E 22:20:44 49° E 22:27:32 10° NE
Cosmos 2297 4.1 22:21:56 10° NNW 22:26:51 50° NE 22:26:51 50° NE
Cosmos 2333 Rocket 4.4 22:24:46 10° WSW 22:29:13 23° WNW 22:33:41 10° N
Cosmos 1727 Rocket 4.0 22:27:42 10° N 22:33:51 73° W 22:34:28 68° SW
Meteor 2-10 Rocket 4.2 22:33:23 45° SW 22:34:46 57° WNW 22:40:29 10° N
Cosmos 1821 Rocket 4.4 22:37:41 50° NE 22:37:41 50° NE 22:42:37 10° NNE
Cosmos 2369 Rocket 4.4 22:34:41 10° NNE 22:37:01 14° NE 22:37:01 14° NE
Terra 3.5 22:39:40 25° NNE 22:39:40 25° NNE 22:41:58 10° N
ATLAS CENTAUR R/B 4.5 22:41:07 10° WNW 22:42:43 12° NW 22:44:20 10° NNW
SPOT 5 4.0 22:49:18 38° NNW 22:49:18 38° NNW 22:52:06 10° NNW
Cosmos 2237 Rocket 4.1 22:45:46 10° WSW 22:50:26 26° WNW 22:55:08 10° N
SPOT 1/Viking Rocket 4.3 22:52:37 51° NNW 22:52:37 51° NNW 22:56:31 10° NNW
Lacrosse 5 4.4 22:49:34 10° N 22:51:36 12° NNE 22:52:35 12° NNE
ATLAS 2AS CENTAUR R/B 3.7 22:44:53 10° NW 22:51:52 39° WSW 22:53:12 36° SW
H-2A R/B 3.4 23:00:22 32° W 23:00:22 32° W 23:04:21 10° NNW
Cosmos 2278 Rocket 3.6 22:56:21 10° NW 23:01:07 29° WSW 23:01:07 29° WSW
ATLAS 5 CENTAUR R/B 4.3 23:08:43 10° N 23:12:44 20° NE 23:12:44 20° NE
NOSS 3-4 (A) 4.0 23:15:23 10° NW 23:21:37 66° WNW 23:21:37 66° WNW
NOSS 3-4 (C) 4.0 23:15:29 10° NW 23:21:43 67° WNW 23:21:43 67° WNW
USA 267 4.2 23:22:49 10° NE 23:28:55 44° NW 23:35:01 10° WSW
SL-16 R/B 4.0 23:38:36 26° WNW 23:39:12 26° WNW 23:43:54 10° N
